Regional Weather Roundup
Issued by NWS

Home | Current Version | Previous Version | Graphics & Text | Print | Product List | Glossary On
Versions: 1 2 3 4 5 6 7 8 9 10 11 12 13 14 15 16 17 18 19 20 21 22 23 24 25 26 27 28 29 30 31 32 33 34 35 36 37 38 39 40 41 42 43 44 45 46 47 48 49 50
000
ASUS43 KLOT 251603
RWRIL

ILLINOIS REGIONAL WEATHER ROUNDUP
NATIONAL WEATHER SERVICE CHICAGO/ROMEOVILLE IL
1100 AM CDT TUE APR 25 2017

NOTE: "FAIR" INDICATES FEW OR NO CLOUDS BELOW 12,000 FEET WITH NO
SIGNIFICANT WEATHER AND/OR OBSTRUCTIONS TO VISIBILITY.

* THESE STATIONS ARE NOT UNDER NWS QUALITY CONTROL. THEY ALSO MAY NOT
  REPORT WEATHER SUCH AS PRECIPITATION OR FOG.

ILZ001-002-007-009-015-016-024-251700-
NORTHWEST ILLINOIS

CITY           SKY/WX    TMP DP  RH WIND       PRES   REMARKS
MOLINE         CLOUDY    70  45  40 S10       29.61R
STERLING*      MOSUNNY   73  44  35 S12G17    29.63F
SAVANNA*       CLOUDY    69  44  41 S8        29.62S
$$

ILZ003-004-008-010-011-017-018-251700-
NORTH CENTRAL ILLINOIS

CITY           SKY/WX    TMP DP  RH WIND       PRES   REMARKS
ROCKFORD       CLOUDY    71  48  43 S17G23    29.66F
FREEPORT*      MOSUNNY   69  44  40 S15       29.64F
ROCHELLE*      CLOUDY    73  47  40 S20G28    29.66F
DE KALB*       MOSUNNY   70  50  50 S15G24    29.68F
PERU*          CLOUDY    70  48  45 S15       29.66S
$$

ILZ005-006-012>014-019>023-251700-
NORTHEAST ILLINOIS

CITY           SKY/WX    TMP DP  RH WIND       PRES   REMARKS
CHICAGO-OHARE  PTSUNNY   71  47  42 S13       29.69S
CHICAGO-MIDWAY PTSUNNY   70  49  47 SE9       29.70F
AURORA         PTSUNNY   70  49  47 S17       29.69F
LANSING*       SUNNY     70  56  62 SE7       29.71S
JOLIET*        PTSUNNY   72  52  49 S6        29.69F
WAUKEGAN       SUNNY     64  52  64 SE10      29.68F
DUPAGE AIRPORT MOSUNNY   70  52  52 S10       29.68F
KANKAKEE*      SUNNY     76  49  39 S9        29.71F
WHEELING       SUNNY     70  49  47 S13       29.70F
MORRIS*        MOSUNNY   73  48  41 S12G21    29.67F
ROMEOVILLE*    MOSUNNY   69  55  59 S12       29.70S
NORTHERLY ISL    N/A     62  51  67 E9          N/A
$$

LMZ740>746-251700-
SOUTHERN LAKE MICHIGAN

STATION/POSITION SKY/WX   TEMP    WIND        PRES    VSBY  WAVE
                          AIR SEA DIR/SP/G                  HT/PER
                          (F)     (DEG/KT/KT) (MB)    (MI)  (FT/S)
SOUTHERN BUOY              46 41  120/ 12/ 12 1007.0          1/ 3
HARRISON CRIB              62     160/ 15/ 17   N/A
BURNHAM HARBOR             63     110/  8/ 10   N/A
CALUMET HARBOR             67     150/  7/ 13 1005.6S
BURNS HARBOR               68     170/  9/ 18 1007.1S
MICHIGAN CITY              66     170/ 12/ 15   N/A
ST. JOSEPH                 58 50  170/ 10/ 12 1007.1F         1/ 2
$$

ILZ025>027-034>036-040-047-049-050-058-095>099-251700-
WEST-CENTRAL ILLINOIS

CITY           SKY/WX    TMP DP  RH WIND       PRES   REMARKS
QUINCY         CLOUDY    66  47  50 SE13      29.59F
GALESBURG*     SUNNY     70  46  42 S8        29.61F
MACOMB*        CLOUDY    70  44  39 S10       29.63F
JACKSONVILLE*  MOSUNNY   73  46  37 S15G22    29.63F
PITTSFIELD*    PTSUNNY   69  48  47 SE10      29.62F
$$

ILZ028>032-037-038-041>044-048-051>054-059>061-251700-
CENTRAL ILLINOIS

CITY           SKY/WX    TMP DP  RH WIND       PRES   REMARKS
PONTIAC        MOSUNNY   74  51  43 S17G25    29.69F
BLOOMINGTON    SUNNY     72  52  49 S18G25    29.67F
DECATUR        MOSUNNY   72  55  55 S17       29.69F
PEORIA         SUNNY     72  48  42 S13       29.64F
LACON*         CLOUDY    71  50  46 S12       29.65S
LINCOLN*       SUNNY     74  49  42 S16G22    29.66S
SPRINGFIELD    SUNNY     75  47  36 S17       29.66S
TAYLORVILLE    SUNNY     73  50  44 S15       29.67F
$$

ILZ033-039-045-046-055>057-062-063-251700-
EAST-CENTRAL ILLINOIS

CITY           SKY/WX    TMP DP  RH WIND       PRES   REMARKS
CHAMPAIGN      SUNNY     74  49  41 S14       29.71F
RANTOUL*       SUNNY     75  52  43 S15G23    29.71F
MATTOON        MOSUNNY   71  56  58 S10       29.72F
PARIS*         SUNNY     72  54  52 S10G16    29.74F
$$

ILZ079-100>102-251700-
SOUTHWEST ILLINOIS

CITY           SKY/WX    TMP DP  RH WIND       PRES   REMARKS
ALTON          MOSUNNY   70  50  49 S15G21    29.66F
BELLEVILLE     SUNNY     73  54  50 SE9       29.66F
CAHOKIA*       SUNNY     74  48  39 S15G23    29.64F
SPARTA*        SUNNY     70  52  53 S14       29.70S
$$

ILZ064>066-069>071-074>076-080>082-084>086-088>090-092>094-251700-
SOUTH-CENTRAL ILLINOIS

CITY           SKY/WX    TMP DP  RH WIND       PRES   REMARKS
CARBONDALE     SUNNY     71  57  61 S12       29.71F
CAIRO*         SUNNY     70  58  63 S8        29.73S
EFFINGHAM*     SUNNY     72  56  58 SE9G17    29.73F
MARION         MOSUNNY   72  57  60 S9        29.73F
MT. VERNON     SUNNY     72  57  59 S14       29.71F
CENTRALIA*     SUNNY     73  57  58 S12       29.69F
SALEM*         SUNNY     73  54  51 S13       29.70F
METROPOLIS*    SUNNY     72  57  60 S6        29.75S
$$

ILZ067-068-072-073-078-083-087-091-251700-
SOUTHEAST ILLINOIS

CITY           SKY/WX    TMP DP  RH WIND       PRES   REMARKS
LAWRENCEVILLE  SUNNY     71  55  56 VRB6      29.75F
FLORA*         MOSUNNY   73  57  57 S13       29.73F
FAIRFIELD*     SUNNY     71  55  57 S8        29.72F
HARRISBURG*    SUNNY     71  59  65 S10G16    29.74S
ROBINSON*      SUNNY     71  54  55 S8        29.75F
CARMI*         MOSUNNY   71  59  66 S6        29.74F
$$

ABBREVIATIONS USED IN REMARKS
   TC - TEMPERATURE IN CELSIUS
  WCI - WIND CHILL INDEX
   HX - HEAT INDEX
  VSB - VISIBILITY
$$





USA.gov is the U.S. government's official web portal to all federal, state and local government web resources and services.